Powrót do katalogu

CZ-3C DEB

AktywnyHEO
NORAD 48545·DEBRIS·🇨🇳 China

Wystrzelony Oct 31, 2010 z Xichang Satellite Launch Center

Loading…

Następne Przeloty (najbliższe 24 godziny)

TLE

ŚwieżeSource: Space-Track

Epoka: Sep 14, 2026, 02:34 UTC

1 48545U 10057BQ  26257.10738515  .00034032  00000-0  89764-2 0  9999
2 48545  18.0097 242.2782 5556447  17.5558 355.7644  4.69657032131446

Śledź CZ-3C DEB w czasie rzeczywistym z AllMySat

Download on the App Store